| time (UTC) | temp C | wind direction | speed KPH | gust KPH | rain 1hr cm | rain 24hr cm | rain mn cm | humidity % | barometer mb |
| 20260507133103 | 6 | 280 | 3.2 | 11.3 | 0.00 | 0.00 | 0.00 | 47 | 1015.3 |
| 20260507132604 | 6 | 344 | 1.6 | 4.8 | 0.00 | 0.00 | 0.00 | 50 | 1015.3 |
| 20260507132104 | 5 | 339 | 3.2 | 8.0 | 0.00 | 0.00 | 0.00 | 51 | 1015.4 |
| 20260507131604 | 5 | 0 | 3.2 | 4.8 | 0.00 | 0.00 | 0.00 | 50 | 1015.3 |
| 20260507131103 | 5 | 0 | 1.6 | 8.0 | 0.00 | 0.00 | 0.00 | 50 | 1015.3 |
| 20260507130604 | 5 | 0 | 3.2 | 4.8 | 0.00 | 0.00 | 0.00 | 51 | 1015.4 |
| 20260507130103 | 5 | 0 | 3.2 | 4.8 | 0.00 | 0.00 | 0.00 | 51 | 1015.3 |
| 20260507125604 | 5 | 0 | 3.2 | 8.0 | 0.00 | 0.00 | 0.00 | 52 | 1015.3 |
| 20260507125104 | 5 | 0 | 3.2 | 9.7 | 0.00 | 0.00 | 0.00 | 52 | 1015.3 |
| 20260507124604 | 5 | 308 | 1.6 | 4.8 | 0.00 | 0.00 | 0.00 | 52 | 1015.3 |
| 20260507124103 | 5 | 11 | 3.2 | 4.8 | 0.00 | 0.00 | 0.00 | 51 | 1015.3 |
| 20260507123603 | 6 | 9 | 1.6 | 4.8 | 0.00 | 0.00 | 0.00 | 53 | 1015.3 |
| 20260507123103 | 6 | 9 | 1.6 | 8.0 | 0.00 | 0.00 | 0.00 | 51 | 1015.1 |
| 20260507122603 | 5 | 6 | 3.2 | 8.0 | 0.00 | 0.00 | 0.00 | 53 | 1015.1 |
| 20260507122104 | 6 | 336 | 3.2 | 4.8 | 0.00 | 0.00 | 0.00 | 52 | 1015.1 |
| 20260507121603 | 6 | 313 | 1.6 | 8.0 | 0.00 | 0.00 | 0.00 | 52 | 1015.0 |
| 20260507121104 | 6 | 326 | 3.2 | 4.8 | 0.00 | 0.00 | 0.00 | 50 | 1015.1 |
| 20260507120605 | 6 | 4 | 1.6 | 4.8 | 0.00 | 0.00 | 0.00 | 50 | 1015.1 |
| 20260507120104 | 6 | 358 | 3.2 | 8.0 | 0.00 | 0.00 | 0.00 | 52 | 1015.1 |
| 20260507115604 | 6 | 347 | 1.6 | 9.7 | 0.00 | 0.00 | 0.00 | 52 | 1015.0 |
| 20260507115104 | 5 | 286 | 1.6 | 4.8 | 0.00 | 0.00 | 0.00 | 52 | 1015.1 |
| 20260507114604 | 6 | 287 | 1.6 | 4.8 | 0.00 | 0.00 | 0.00 | 52 | 1015.0 |
| 20260507114104 | 6 | 294 | 3.2 | 4.8 | 0.00 | 0.00 | 0.00 | 52 | 1015.0 |
| 20260507113604 | 6 | 320 | 1.6 | 12.9 | 0.00 | 0.00 | 0.00 | 52 | 1015.0 |
| 20260507113104 | 6 | 288 | 3.2 | 9.7 | 0.00 | 0.00 | 0.00 | 52 | 1015.0 |
| 20260507112604 | 6 | 357 | 1.6 | 4.8 | 0.00 | 0.00 | 0.00 | 52 | 1015.0 |
| 20260507112104 | 6 | 297 | 3.2 | 4.8 | 0.00 | 0.00 | 0.00 | 52 | 1014.9 |
| 20260507111604 | 6 | 263 | 3.2 | 8.0 | 0.00 | 0.00 | 0.00 | 53 | 1014.9 |
| 20260507111103 | 6 | 330 | 1.6 | 4.8 | 0.00 | 0.00 | 0.00 | 54 | 1014.9 |
| 20260507110604 | 6 | 308 | 1.6 | 4.8 | 0.00 | 0.00 | 0.00 | 52 | 1014.9 |
| 20260507110104 | 6 | 260 | 1.6 | 8.0 | 0.00 | 0.00 | 0.00 | 55 | 1014.8 |
| 20260507105603 | 6 | 321 | 1.6 | 4.8 | 0.00 | 0.00 | 0.00 | 53 | 1014.9 |
| 20260507105104 | 6 | 304 | 1.6 | 4.8 | 0.00 | 0.00 | 0.00 | 53 | 1014.9 |
| 20260507104604 | 6 | 294 | 1.6 | 4.8 | 0.00 | 0.00 | 0.00 | 54 | 1014.9 |
| 20260507104103 | 6 | 318 | 3.2 | 4.8 | 0.00 | 0.00 | 0.00 | 54 | 1014.9 |
| 20260507103604 | 6 | 316 | 3.2 | 8.0 | 0.00 | 0.00 | 0.00 | 56 | 1014.8 |
| 20260507103104 | 5 | 317 | 1.6 | 4.8 | 0.00 | 0.00 | 0.00 | 59 | 1014.8 |
| 20260507102604 | 5 | 319 | 1.6 | 4.8 | 0.00 | 0.00 | 0.00 | 58 | 1014.7 |
| 20260507102104 | 5 | 319 | 0.0 | 4.8 | 0.00 | 0.00 | 0.00 | 58 | 1014.7 |
| 20260507101604 | 5 | 324 | 1.6 | 4.8 | 0.00 | 0.00 | 0.00 | 55 | 1014.6 |
| 20260507101104 | 6 | 326 | 1.6 | 4.8 | 0.00 | 0.00 | 0.00 | 56 | 1014.7 |
| 20260507100603 | 6 | 335 | 1.6 | 4.8 | 0.00 | 0.00 | 0.00 | 56 | 1014.6 |
| 20260507100104 | 6 | 333 | 1.6 | 4.8 | 0.00 | 0.00 | 0.00 | 57 | 1014.6 |
| 20260507095603 | 6 | 310 | 3.2 | 4.8 | 0.00 | 0.00 | 0.00 | 56 | 1014.5 |
| 20260507095103 | 5 | 286 | 1.6 | 4.8 | 0.00 | 0.00 | 0.00 | 57 | 1014.5 |
| 20260507094603 | 5 | 321 | 3.2 | 4.8 | 0.00 | 0.00 | 0.00 | 61 | 1014.5 |
| 20260507094103 | 5 | 329 | 1.6 | 4.8 | 0.00 | 0.00 | 0.00 | 59 | 1014.5 |
| 20260507093603 | 5 | 327 | 3.2 | 4.8 | 0.00 | 0.00 | 0.00 | 58 | 1014.5 |
| 20260507093104 | 6 | 320 | 1.6 | 4.8 | 0.00 | 0.00 | 0.00 | 58 | 1014.5 |
| 20260507092604 | 6 | 15 | 3.2 | 9.7 | 0.00 | 0.00 | 0.00 | 55 | 1014.5 |
| 20260507092104 | 6 | 270 | 1.6 | 8.0 | 0.00 | 0.00 | 0.00 | 59 | 1014.5 |
| 20260507091604 | 6 | 265 | 3.2 | 12.9 | 0.00 | 0.00 | 0.00 | 60 | 1014.5 |
| 20260507091103 | 6 | 335 | 1.6 | 8.0 | 0.00 | 0.00 | 0.00 | 60 | 1014.5 |
| 20260507090603 | 6 | 299 | 3.2 | 4.8 | 0.00 | 0.00 | 0.00 | 59 | 1014.5 |
| 20260507090104 | 5 | 343 | 3.2 | 4.8 | 0.00 | 0.00 | 0.00 | 60 | 1014.5 |
| 20260507085604 | 6 | 350 | 3.2 | 8.0 | 0.00 | 0.00 | 0.00 | 60 | 1014.4 |
| 20260507085104 | 6 | 333 | 3.2 | 4.8 | 0.00 | 0.00 | 0.00 | 62 | 1014.4 |
| 20260507084603 | 5 | 335 | 1.6 | 9.7 | 0.00 | 0.00 | 0.00 | 61 | 1014.4 |
| 20260507084104 | 5 | 283 | 1.6 | 4.8 | 0.00 | 0.00 | 0.00 | 61 | 1014.3 |
| 20260507083603 | 5 | 309 | 3.2 | 4.8 | 0.00 | 0.00 | 0.00 | 62 | 1014.3 |
| 20260507083103 | 5 | 272 | 1.6 | 4.8 | 0.00 | 0.00 | 0.00 | 64 | 1014.3 |
| 20260507082603 | 5 | 299 | 3.2 | 4.8 | 0.00 | 0.00 | 0.00 | 63 | 1014.3 |
| 20260507082103 | 5 | 0 | 1.6 | 4.8 | 0.00 | 0.00 | 0.00 | 62 | 1014.3 |
| 20260507081604 | 5 | 352 | 1.6 | 4.8 | 0.00 | 0.00 | 0.00 | 63 | 1014.3 |
| 20260507081103 | 4 | 349 | 3.2 | 8.0 | 0.00 | 0.00 | 0.00 | 63 | 1014.2 |
| 20260507080604 | 4 | 327 | 1.6 | 4.8 | 0.00 | 0.00 | 0.00 | 66 | 1014.2 |
| 20260507080103 | 4 | 331 | 3.2 | 8.0 | 0.00 | 0.00 | 0.00 | 65 | 1014.2 |
| 20260507075604 | 4 | 285 | 3.2 | 4.8 | 0.00 | 0.00 | 0.00 | 66 | 1014.1 |
| 20260507075103 | 4 | 281 | 1.6 | 4.8 | 0.00 | 0.00 | 0.00 | 65 | 1014.2 |
| 20260507074604 | 4 | 275 | 3.2 | 4.8 | 0.00 | 0.00 | 0.00 | 66 | 1014.1 |
| 20260507074104 | 3 | 336 | 1.6 | 4.8 | 0.00 | 0.00 | 0.00 | 65 | 1014.1 |
| 20260507073603 | 4 | 355 | 3.2 | 8.0 | 0.00 | 0.00 | 0.00 | 65 | 1014.1 |
| 20260507073104 | 3 | 323 | 3.2 | 4.8 | 0.00 | 0.00 | 0.00 | 67 | 1014.0 |
| 20260507072604 | 4 | 302 | 3.2 | 4.8 | 0.00 | 0.00 | 0.00 | 66 | 1014.0 |
| 20260507072104 | 3 | 314 | 1.6 | 4.8 | 0.00 | 0.00 | 0.00 | 69 | 1014.0 |
| 20260507071604 | 3 | 316 | 1.6 | 4.8 | 0.00 | 0.00 | 0.00 | 70 | 1014.0 |
| 20260507071104 | 3 | 294 | 1.6 | 4.8 | 0.00 | 0.00 | 0.00 | 71 | 1014.0 |
| 20260507070603 | 3 | 293 | 3.2 | 4.8 | 0.00 | 0.00 | 0.00 | 72 | 1013.9 |
| 20260507070104 | 3 | 288 | 1.6 | 9.7 | 0.00 | 0.00 | 0.00 | 74 | 1014.0 |
| 20260507065604 | 2 | 320 | 3.2 | 4.8 | 0.00 | 0.00 | 0.00 | 73 | 1014.0 |
| 20260507065104 | 2 | 264 | 1.6 | 3.2 | 0.00 | 0.00 | 0.00 | 75 | 1013.9 |
| 20260507064604 | 3 | 267 | 3.2 | 4.8 | 0.00 | 0.00 | 0.00 | 74 | 1013.9 |
| 20260507064103 | 3 | 262 | 3.2 | 4.8 | 0.00 | 0.00 | 0.00 | 75 | 1013.9 |
| 20260507063604 | 2 | 267 | 0.0 | 4.8 | 0.00 | 0.00 | 0.00 | 77 | 1013.8 |
| 20260507063104 | 2 | 263 | 1.6 | 4.8 | 0.00 | 0.00 | 0.00 | 77 | 1013.8 |
| 20260507062604 | 2 | 263 | 1.6 | 4.8 | 0.00 | 0.00 | 0.00 | 77 | 1013.8 |
| 20260507062104 | 2 | 263 | 1.6 | 4.8 | 0.00 | 0.00 | 0.00 | 78 | 1013.8 |
| 20260507061604 | 2 | 261 | 1.6 | 3.2 | 0.00 | 0.00 | 0.00 | 79 | 1013.8 |
| 20260507061103 | 2 | 260 | 1.6 | 4.8 | 0.00 | 0.00 | 0.00 | 79 | 1013.7 |
| 20260507060604 | 1 | 257 | 0.0 | 3.2 | 0.00 | 0.00 | 0.00 | 79 | 1013.7 |
| 20260507060103 | 1 | 257 | 1.6 | 4.8 | 0.00 | 0.00 | 0.00 | 79 | 1013.7 |
| 20260507055604 | 2 | 256 | 0.0 | 1.6 | 0.00 | 0.00 | 0.00 | 77 | 1013.7 |
| 20260507055104 | 2 | 256 | 1.6 | 3.2 | 0.00 | 0.00 | 0.00 | 78 | 1013.6 |
| 20260507054604 | 2 | 256 | 3.2 | 4.8 | 0.00 | 0.00 | 0.00 | 77 | 1013.6 |
| 20260507054104 | 1 | 256 | 0.0 | 4.8 | 0.00 | 0.00 | 0.00 | 78 | 1013.5 |
| 20260507053604 | 1 | 256 | 3.2 | 4.8 | 0.00 | 0.00 | 0.00 | 79 | 1013.6 |
| 20260507053103 | 1 | 254 | 1.6 | 4.8 | 0.00 | 0.00 | 0.00 | 79 | 1013.5 |
| 20260507052604 | 1 | 254 | 3.2 | 4.8 | 0.00 | 0.00 | 0.00 | 80 | 1013.5 |
| 20260507052104 | 1 | 254 | 1.6 | 4.8 | 0.00 | 0.00 | 0.00 | 80 | 1013.5 |
| 20260507051604 | 1 | 254 | 1.6 | 4.8 | 0.00 | 0.00 | 0.00 | 80 | 1013.5 |
| 20260507051104 | 1 | 254 | 1.6 | 3.2 | 0.00 | 0.00 | 0.00 | 81 | 1013.4 |
| 20260507050603 | 1 | 254 | 0.0 | 1.6 | 0.00 | 0.00 | 0.00 | 80 | 1013.4 |
| 20260507050104 | 1 | 254 | 0.0 | 1.6 | 0.00 | 0.00 | 0.00 | 82 | 1013.4 |
| 20260507045604 | 0 | 254 | 3.2 | 4.8 | 0.00 | 0.00 | 0.00 | 81 | 1013.4 |
| 20260507045104 | 1 | 254 | 0.0 | 4.8 | 0.00 | 0.00 | 0.00 | 80 | 1013.4 |
| 20260507044603 | 1 | 254 | 0.0 | 1.6 | 0.00 | 0.00 | 0.00 | 80 | 1013.4 |
| 20260507044103 | 1 | 253 | 0.0 | 0.0 | 0.00 | 0.00 | 0.00 | 82 | 1013.4 |
| 20260507043603 | 0 | 254 | 0.0 | 0.0 | 0.00 | 0.00 | 0.00 | 82 | 1013.4 |
| 20260507043104 | 0 | 335 | 0.0 | 0.0 | 0.00 | 0.00 | 0.00 | 83 | 1013.4 |
| 20260507042604 | 0 | 314 | 0.0 | 0.0 | 0.00 | 0.00 | 0.00 | 84 | 1013.3 |
| 20260507042104 | 0 | 0 | 0.0 | 0.0 | 0.00 | 0.00 | 0.00 | 85 | 1013.3 |
| 20260507041604 | -1 | 287 | 0.0 | 0.0 | 0.00 | 0.00 | 0.00 | 85 | 1013.3 |
| 20260507041103 | -1 | 346 | 0.0 | 0.0 | 0.00 | 0.00 | 0.00 | 88 | 1013.3 |
| 20260507040604 | -1 | 254 | 0.0 | 0.0 | 0.00 | 0.00 | 0.00 | 88 | 1013.3 |
| 20260507040104 | -2 | 339 | 0.0 | 0.0 | 0.00 | 0.00 | 0.00 | 88 | 1013.3 |
| 20260507035604 | -2 | 0 | 0.0 | 0.0 | 0.00 | 0.00 | 0.00 | 89 | 1013.3 |
| 20260507035103 | -2 | 356 | 0.0 | 0.0 | 0.00 | 0.00 | 0.00 | 90 | 1013.3 |
| 20260507034604 | -2 | 311 | 0.0 | 0.0 | 0.00 | 0.00 | 0.00 | 91 | 1013.2 |
| 20260507034103 | -3 | 0 | 0.0 | 0.0 | 0.00 | 0.00 | 0.00 | 91 | 1013.2 |
| 20260507033603 | -3 | 0 | 0.0 | 0.0 | 0.00 | 0.00 | 0.00 | 92 | 1013.2 |
| 20260507033104 | -3 | 0 | 0.0 | 0.0 | 0.00 | 0.00 | 0.00 | 92 | 1013.1 |
| 20260507032604 | -3 | 0 | 0.0 | 0.0 | 0.00 | 0.00 | 0.00 | 92 | 1013.1 |
| 20260507032104 | -4 | 0 | 0.0 | 0.0 | 0.00 | 0.00 | 0.00 | 93 | 1013.0 |
| 20260507031603 | -4 | 0 | 0.0 | 0.0 | 0.00 | 0.00 | 0.00 | 93 | 1013.0 |
| 20260507031104 | -4 | 0 | 0.0 | 0.0 | 0.00 | 0.00 | 0.00 | 93 | 1012.9 |
| 20260507030604 | -5 | 0 | 0.0 | 0.0 | 0.00 | 0.00 | 0.00 | 92 | 1012.9 |
| 20260507030104 | -5 | 0 | 0.0 | 0.0 | 0.00 | 0.00 | 0.00 | 92 | 1012.9 |
| 20260507025604 | -5 | 0 | 0.0 | 0.0 | 0.00 | 0.00 | 0.00 | 92 | 1012.9 |
| 20260507025104 | -5 | 0 | 0.0 | 0.0 | 0.00 | 0.00 | 0.00 | 92 | 1012.8 |
| 20260507024603 | -5 | 0 | 0.0 | 0.0 | 0.00 | 0.00 | 0.00 | 92 | 1012.8 |
| 20260507024103 | -5 | 0 | 0.0 | 0.0 | 0.00 | 0.00 | 0.00 | 92 | 1012.7 |
| 20260507023604 | -5 | 0 | 0.0 | 0.0 | 0.00 | 0.00 | 0.00 | 92 | 1012.7 |
| 20260507023104 | -5 | 0 | 0.0 | 0.0 | 0.00 | 0.00 | 0.00 | 92 | 1012.6 |
| 20260507022604 | -5 | 0 | 0.0 | 0.0 | 0.00 | 0.00 | 0.00 | 92 | 1012.6 |
| 20260507022104 | -5 | 0 | 0.0 | 0.0 | 0.00 | 0.00 | 0.00 | 92 | 1012.6 |
| 20260507021605 | -5 | 0 | 0.0 | 0.0 | 0.00 | 0.00 | 0.00 | 92 | 1012.6 |
| 20260507021104 | -5 | 0 | 0.0 | 0.0 | 0.00 | 0.00 | 0.00 | 91 | 1012.5 |
| 20260507020604 | -5 | 0 | 0.0 | 0.0 | 0.00 | 0.00 | 0.00 | 91 | 1012.5 |
| 20260507020104 | -5 | 0 | 0.0 | 0.0 | 0.00 | 0.00 | 0.00 | 91 | 1012.5 |
| 20260507015604 | -5 | 0 | 0.0 | 0.0 | 0.00 | 0.00 | 0.00 | 91 | 1012.6 |
| 20260507015104 | -4 | 0 | 0.0 | 0.0 | 0.00 | 0.00 | 0.00 | 91 | 1012.5 |
| 20260507014604 | -4 | 0 | 0.0 | 0.0 | 0.00 | 0.00 | 0.00 | 92 | 1012.5 |
| 20260507014104 | -5 | 0 | 0.0 | 0.0 | 0.00 | 0.00 | 0.00 | 91 | 1012.5 |
| 20260507013604 | -5 | 0 | 0.0 | 0.0 | 0.00 | 0.00 | 0.00 | 91 | 1012.4 |
| 20260507013103 | -5 | 0 | 0.0 | 0.0 | 0.00 | 0.00 | 0.00 | 91 | 1012.4 |
| 20260507012603 | -4 | 0 | 0.0 | 0.0 | 0.00 | 0.00 | 0.00 | 90 | 1012.4 |
| 20260507012103 | -4 | 0 | 0.0 | 0.0 | 0.00 | 0.00 | 0.00 | 90 | 1012.4 |
| 20260507011604 | -4 | 0 | 0.0 | 0.0 | 0.00 | 0.00 | 0.00 | 89 | 1012.4 |
| 20260507011103 | -3 | 0 | 0.0 | 0.0 | 0.00 | 0.00 | 0.00 | 89 | 1012.3 |
| 20260507010604 | -3 | 0 | 0.0 | 0.0 | 0.00 | 0.00 | 0.00 | 89 | 1012.3 |
| 20260507005604 | -3 | 0 | 0.0 | 0.0 | 0.00 | 0.00 | 0.00 | 90 | 1012.3 |
| 20260507005103 | -3 | 0 | 0.0 | 0.0 | 0.00 | 0.00 | 0.00 | 90 | 1012.3 |
| 20260507004603 | -3 | 0 | 0.0 | 0.0 | 0.00 | 0.00 | 0.00 | 90 | 1012.3 |
| 20260507004104 | -3 | 0 | 0.0 | 0.0 | 0.00 | 0.00 | 0.00 | 90 | 1012.2 |
| 20260507003604 | -3 | 0 | 0.0 | 0.0 | 0.00 | 0.00 | 0.00 | 89 | 1012.2 |
| 20260507003104 | -3 | 0 | 0.0 | 0.0 | 0.00 | 0.00 | 0.00 | 90 | 1012.1 |
| 20260507002604 | -3 | 0 | 0.0 | 0.0 | 0.00 | 0.00 | 0.00 | 90 | 1012.1 |
| 20260507002103 | -3 | 0 | 0.0 | 0.0 | 0.00 | 0.00 | 0.00 | 90 | 1012.0 |
| 20260507001604 | -3 | 0 | 0.0 | 0.0 | 0.00 | 0.00 | 0.00 | 89 | 1012.0 |
| 20260507001104 | -3 | 0 | 0.0 | 0.0 | 0.00 | 0.00 | 0.00 | 89 | 1012.0 |
| 20260507000603 | -3 | 0 | 0.0 | 0.0 | 0.00 | 0.00 | 0.00 | 89 | 1012.0 |
| 20260507000104 | -3 | 0 | 0.0 | 0.0 | 0.00 | 0.00 | 0.00 | 90 | 1012.0 |
| 20260506235603 | -3 | 0 | 0.0 | 0.0 | 0.00 | 0.00 | 0.00 | 90 | 1012.0 |
| 20260506235104 | -3 | 0 | 0.0 | 0.0 | 0.00 | 0.00 | 0.00 | 90 | 1011.9 |
| 20260506234603 | -3 | 0 | 0.0 | 0.0 | 0.00 | 0.00 | 0.00 | 89 | 1011.9 |
| 20260506234103 | -3 | 0 | 0.0 | 0.0 | 0.00 | 0.00 | 0.00 | 90 | 1011.8 |
| 20260506233604 | -3 | 0 | 0.0 | 0.0 | 0.00 | 0.00 | 0.00 | 89 | 1011.8 |
| 20260506233103 | -3 | 0 | 0.0 | 0.0 | 0.00 | 0.00 | 0.00 | 89 | 1011.8 |
| 20260506232604 | -3 | 0 | 0.0 | 0.0 | 0.00 | 0.00 | 0.00 | 88 | 1011.7 |
| 20260506232103 | -3 | 0 | 0.0 | 0.0 | 0.00 | 0.00 | 0.00 | 88 | 1011.7 |
| 20260506231604 | -3 | 0 | 0.0 | 0.0 | 0.00 | 0.00 | 0.00 | 89 | 1011.6 |
| 20260506231104 | -3 | 0 | 0.0 | 0.0 | 0.00 | 0.00 | 0.00 | 88 | 1011.6 |
| 20260506230604 | -3 | 0 | 0.0 | 0.0 | 0.00 | 0.00 | 0.00 | 88 | 1011.6 |
| 20260506230103 | -2 | 0 | 0.0 | 0.0 | 0.00 | 0.00 | 0.00 | 88 | 1011.6 |
| 20260506225604 | -2 | 0 | 0.0 | 0.0 | 0.00 | 0.00 | 0.00 | 88 | 1011.6 |
| 20260506225104 | -2 | 0 | 0.0 | 0.0 | 0.00 | 0.00 | 0.00 | 88 | 1011.6 |
| 20260506224604 | -2 | 0 | 0.0 | 0.0 | 0.00 | 0.00 | 0.00 | 87 | 1011.5 |
| 20260506224103 | -2 | 0 | 0.0 | 0.0 | 0.00 | 0.00 | 0.00 | 87 | 1011.5 |
| 20260506223604 | -2 | 0 | 0.0 | 3.2 | 0.00 | 0.00 | 0.00 | 86 | 1011.5 |
| 20260506223103 | -2 | 0 | 1.6 | 3.2 | 0.00 | 0.00 | 0.00 | 86 | 1011.4 |
| 20260506222604 | -1 | 0 | 1.6 | 3.2 | 0.00 | 0.00 | 0.00 | 87 | 1011.4 |
| 20260506222103 | -1 | 0 | 1.6 | 3.2 | 0.00 | 0.00 | 0.00 | 88 | 1011.4 |
| 20260506221604 | -1 | 0 | 1.6 | 3.2 | 0.00 | 0.00 | 0.00 | 88 | 1011.4 |
| 20260506221108 | -2 | 0 | 1.6 | 3.2 | 0.00 | 0.00 | 0.00 | 89 | 1011.4 |
| 20260506220603 | -1 | 0 | 0.0 | 3.2 | 0.00 | 0.00 | 0.00 | 89 | 1011.3 |
| 20260506220104 | -1 | 0 | 0.0 | 1.6 | 0.00 | 0.00 | 0.00 | 88 | 1011.3 |
| 20260506215603 | -1 | 0 | 1.6 | 4.8 | 0.00 | 0.00 | 0.00 | 90 | 1011.3 |
| 20260506215104 | -1 | 0 | 3.2 | 4.8 | 0.00 | 0.00 | 0.00 | 93 | 1011.3 |
| 20260506214604 | -1 | 0 | 3.2 | 8.0 | 0.00 | 0.00 | 0.00 | 93 | 1011.2 |
| 20260506214104 | -1 | 0 | 3.2 | 4.8 | 0.00 | 0.00 | 0.00 | 93 | 1011.2 |
| 20260506213604 | -1 | 0 | 1.6 | 3.2 | 0.00 | 0.00 | 0.00 | 93 | 1011.1 |
| 20260506213104 | -1 | 0 | 3.2 | 3.2 | 0.00 | 0.00 | 0.00 | 93 | 1011.1 |
| 20260506212603 | -1 | 0 | 3.2 | 4.8 | 0.00 | 0.00 | 0.00 | 93 | 1011.1 |
| 20260506212104 | -1 | 0 | 0.0 | 3.2 | 0.00 | 0.00 | 0.00 | 93 | 1011.1 |
| 20260506211604 | -1 | 0 | 1.6 | 1.6 | 0.00 | 0.00 | 0.00 | 93 | 1010.9 |
| 20260506211104 | -1 | 0 | 0.0 | 0.0 | 0.00 | 0.00 | 0.00 | 92 | 1010.9 |
| 20260506210603 | -1 | 0 | 0.0 | 0.0 | 0.00 | 0.00 | 0.00 | 92 | 1010.9 |
| 20260506210105 | -1 | 0 | 0.0 | 0.0 | 0.00 | 0.00 | 0.00 | 92 | 1010.9 |
| 20260506205604 | -1 | 0 | 0.0 | 0.0 | 0.00 | 0.00 | 0.00 | 92 | 1010.9 |
| 20260506205104 | -1 | 0 | 0.0 | 0.0 | 0.00 | 0.00 | 0.00 | 91 | 1010.9 |
| 20260506204604 | -1 | 0 | 0.0 | 0.0 | 0.00 | 0.00 | 0.00 | 91 | 1010.9 |
| 20260506204104 | -1 | 0 | 0.0 | 1.6 | 0.00 | 0.00 | 0.00 | 91 | 1010.9 |
| 20260506203603 | -1 | 0 | 0.0 | 0.0 | 0.00 | 0.00 | 0.00 | 91 | 1010.9 |
| 20260506203104 | -1 | 0 | 0.0 | 0.0 | 0.00 | 0.00 | 0.00 | 91 | 1010.9 |
| 20260506202603 | -1 | 0 | 0.0 | 0.0 | 0.00 | 0.00 | 0.00 | 91 | 1010.9 |
| 20260506202104 | -1 | 0 | 0.0 | 0.0 | 0.00 | 0.00 | 0.00 | 91 | 1010.9 |
| 20260506201604 | -1 | 0 | 0.0 | 0.0 | 0.00 | 0.00 | 0.00 | 91 | 1010.9 |
| 20260506201103 | -1 | 0 | 0.0 | 0.0 | 0.00 | 0.00 | 0.00 | 91 | 1010.9 |
| 20260506200604 | -1 | 0 | 0.0 | 0.0 | 0.00 | 0.00 | 0.00 | 91 | 1010.9 |
| 20260506200103 | -1 | 0 | 0.0 | 0.0 | 0.00 | 0.00 | 0.00 | 90 | 1010.9 |
| 20260506195603 | -1 | 0 | 0.0 | 0.0 | 0.00 | 0.00 | 0.00 | 90 | 1010.8 |
| 20260506195104 | 0 | 0 | 0.0 | 0.0 | 0.00 | 0.00 | 0.00 | 90 | 1010.8 |
| 20260506194603 | 0 | 0 | 0.0 | 1.6 | 0.00 | 0.00 | 0.00 | 90 | 1010.8 |
| 20260506194104 | 0 | 0 | 0.0 | 0.0 | 0.00 | 0.00 | 0.00 | 89 | 1010.8 |
| 20260506193604 | 0 | 0 | 0.0 | 1.6 | 0.00 | 0.00 | 0.00 | 88 | 1010.7 |
| 20260506193104 | 0 | 0 | 0.0 | 1.6 | 0.00 | 0.00 | 0.00 | 88 | 1010.7 |
| 20260506192604 | 0 | 0 | 0.0 | 3.2 | 0.00 | 0.00 | 0.00 | 87 | 1010.7 |
| 20260506192104 | 0 | 0 | 0.0 | 1.6 | 0.00 | 0.00 | 0.00 | 86 | 1010.6 |
| 20260506191603 | 0 | 0 | 1.6 | 1.6 | 0.00 | 0.00 | 0.00 | 86 | 1010.6 |
| 20260506191103 | 0 | 0 | 0.0 | 0.0 | 0.00 | 0.00 | 0.00 | 85 | 1010.6 |
| 20260506190603 | 1 | 0 | 0.0 | 0.0 | 0.00 | 0.00 | 0.00 | 84 | 1010.6 |
| 20260506190103 | 1 | 0 | 0.0 | 0.0 | 0.00 | 0.00 | 0.00 | 84 | 1010.6 |
| 20260506185604 | 1 | 0 | 0.0 | 0.0 | 0.00 | 0.00 | 0.00 | 84 | 1010.5 |
| 20260506185104 | 1 | 0 | 0.0 | 0.0 | 0.00 | 0.00 | 0.00 | 83 | 1010.5 |
| 20260506184603 | 1 | 0 | 0.0 | 1.6 | 0.00 | 0.00 | 0.00 | 83 | 1010.5 |
| 20260506184104 | 1 | 0 | 0.0 | 0.0 | 0.00 | 0.00 | 0.00 | 82 | 1010.5 |
| 20260506183604 | 1 | 0 | 0.0 | 0.0 | 0.00 | 0.00 | 0.00 | 82 | 1010.5 |
| 20260506183103 | 1 | 0 | 0.0 | 0.0 | 0.00 | 0.00 | 0.00 | 83 | 1010.4 |
| 20260506182604 | 1 | 0 | 1.6 | 1.6 | 0.00 | 0.00 | 0.00 | 82 | 1010.4 |
| 20260506182104 | 1 | 0 | 1.6 | 3.2 | 0.00 | 0.00 | 0.00 | 82 | 1010.4 |
| 20260506181604 | 1 | 0 | 0.0 | 3.2 | 0.00 | 0.00 | 0.00 | 81 | 1010.3 |
| 20260506181104 | 2 | 0 | 1.6 | 3.2 | 0.00 | 0.00 | 0.00 | 81 | 1010.3 |
| 20260506180604 | 2 | 0 | 0.0 | 3.2 | 0.00 | 0.00 | 0.00 | 80 | 1010.3 |
| 20260506180104 | 2 | 0 | 0.0 | 3.2 | 0.00 | 0.00 | 0.00 | 80 | 1010.2 |
| 20260506175604 | 2 | 0 | 1.6 | 4.8 | 0.00 | 0.00 | 0.00 | 80 | 1010.2 |
| 20260506175103 | 2 | 0 | 1.6 | 3.2 | 0.00 | 0.00 | 0.00 | 80 | 1010.2 |
| 20260506174604 | 2 | 0 | 1.6 | 3.2 | 0.00 | 0.00 | 0.00 | 79 | 1010.2 |
| 20260506174104 | 2 | 0 | 1.6 | 4.8 | 0.00 | 0.00 | 0.00 | 78 | 1010.2 |
| 20260506173604 | 2 | 0 | 1.6 | 4.8 | 0.00 | 0.00 | 0.00 | 77 | 1010.1 |
| 20260506173103 | 2 | 0 | 3.2 | 4.8 | 0.00 | 0.00 | 0.00 | 76 | 1010.0 |
| 20260506172604 | 2 | 0 | 3.2 | 4.8 | 0.00 | 0.00 | 0.00 | 75 | 1010.0 |
| 20260506172104 | 2 | 0 | 0.0 | 3.2 | 0.00 | 0.00 | 0.00 | 74 | 1009.9 |
| 20260506171603 | 2 | 0 | 0.0 | 3.2 | 0.00 | 0.00 | 0.00 | 75 | 1009.8 |
| 20260506171104 | 2 | 0 | 1.6 | 4.8 | 0.00 | 0.00 | 0.00 | 77 | 1009.8 |
| 20260506170604 | 2 | 0 | 3.2 | 11.3 | 0.00 | 0.00 | 0.00 | 77 | 1009.8 |
| 20260506170104 | 2 | 0 | 8.0 | 20.9 | 0.00 | 0.00 | 0.00 | 78 | 1010.0 |
| 20260506165604 | 2 | 0 | 8.0 | 24.1 | 0.00 | 0.00 | 0.00 | 78 | 1010.0 |
| 20260506165104 | 2 | 0 | 8.0 | 19.3 | 0.00 | 0.00 | 0.00 | 76 | 1009.9 |
| 20260506164604 | 3 | 0 | 4.8 | 16.1 | 0.00 | 0.00 | 0.00 | 74 | 1009.8 |
| 20260506164104 | 3 | 0 | 1.6 | 4.8 | 0.00 | 0.00 | 0.00 | 73 | 1009.8 |
| 20260506163604 | 3 | 0 | 4.8 | 8.0 | 0.00 | 0.00 | 0.00 | 73 | 1009.7 |
| 20260506163103 | 3 | 0 | 4.8 | 9.7 | 0.00 | 0.00 | 0.00 | 73 | 1009.7 |
| 20260506162604 | 2 | 0 | 3.2 | 9.7 | 0.00 | 0.00 | 0.00 | 77 | 1009.6 |
| 20260506162103 | 2 | 0 | 4.8 | 8.0 | 0.00 | 0.00 | 0.00 | 77 | 1009.7 |
| 20260506161604 | 2 | 0 | 6.4 | 14.5 | 0.00 | 0.00 | 0.00 | 79 | 1009.6 |
| 20260506161104 | 2 | 0 | 3.2 | 12.9 | 0.00 | 0.00 | 0.00 | 80 | 1009.7 |
| 20260506160604 | 2 | 0 | 4.8 | 12.9 | 0.00 | 0.00 | 0.00 | 82 | 1009.7 |
| 20260506160103 | 2 | 0 | 4.8 | 9.7 | 0.00 | 0.00 | 0.00 | 81 | 1009.6 |
| 20260506155603 | 2 | 0 | 8.0 | 24.1 | 0.00 | 0.00 | 0.00 | 79 | 1009.7 |
| 20260506155104 | 2 | 0 | 6.4 | 20.9 | 0.00 | 0.00 | 0.00 | 77 | 1009.7 |
| 20260506154604 | 3 | 0 | 6.4 | 19.3 | 0.00 | 0.00 | 0.00 | 72 | 1009.5 |
| 20260506154104 | 3 | 0 | 8.0 | 20.9 | 0.00 | 0.00 | 0.00 | 72 | 1009.4 |
| 20260506153603 | 3 | 0 | 3.2 | 4.8 | 0.00 | 0.00 | 0.00 | 73 | 1009.3 |
| 20260506153104 | 3 | 0 | 1.6 | 4.8 | 0.00 | 0.00 | 0.00 | 71 | 1009.3 |
| 20260506152603 | 3 | 0 | 0.0 | 4.8 | 0.00 | 0.00 | 0.00 | 73 | 1009.2 |
| 20260506152104 | 3 | 331 | 0.0 | 3.2 | 0.00 | 0.00 | 0.00 | 72 | 1009.2 |
| 20260506151604 | 3 | 358 | 1.6 | 8.0 | 0.00 | 0.00 | 0.00 | 74 | 1009.3 |
| 20260506151103 | 3 | 356 | 1.6 | 4.8 | 0.00 | 0.00 | 0.00 | 74 | 1009.2 |
| 20260506150604 | 3 | 339 | 3.2 | 4.8 | 0.00 | 0.00 | 0.00 | 77 | 1009.2 |
| 20260506150103 | 3 | 0 | 1.6 | 3.2 | 0.00 | 0.00 | 0.00 | 76 | 1009.2 |
| 20260506145604 | 3 | 0 | 0.0 | 4.8 | 0.00 | 0.00 | 0.00 | 76 | 1009.3 |
| 20260506145103 | 3 | 345 | 1.6 | 4.8 | 0.00 | 0.00 | 0.00 | 76 | 1009.3 |
| 20260506144604 | 3 | 287 | 3.2 | 4.8 | 0.00 | 0.00 | 0.00 | 76 | 1009.2 |
| 20260506144105 | 3 | 0 | 1.6 | 4.8 | 0.00 | 0.00 | 0.00 | 78 | 1009.2 |
| 20260506143604 | 2 | 336 | 1.6 | 4.8 | 0.00 | 0.00 | 0.00 | 80 | 1009.2 |
| 20260506143104 | 2 | 0 | 1.6 | 8.0 | 0.00 | 0.00 | 0.00 | 80 | 1009.3 |
| 20260506142604 | 2 | 0 | 1.6 | 11.3 | 0.00 | 0.00 | 0.00 | 79 | 1009.4 |
| 20260506142104 | 3 | 0 | 3.2 | 4.8 | 0.00 | 0.00 | 0.00 | 74 | 1009.3 |
| 20260506141604 | 4 | 309 | 1.6 | 4.8 | 0.00 | 0.00 | 0.00 | 67 | 1009.1 |
| 20260506141103 | 5 | 214 | 3.2 | 8.0 | 0.00 | 0.00 | 0.00 | 66 | 1009.0 |
| 20260506140604 | 4 | 332 | 1.6 | 3.2 | 0.00 | 0.00 | 0.00 | 68 | 1008.9 |
| 20260506140103 | 4 | 359 | 1.6 | 3.2 | 0.00 | 0.00 | 0.00 | 67 | 1009.0 |
| 20260506135603 | 5 | 258 | 1.6 | 4.8 | 0.00 | 0.00 | 0.00 | 66 | 1008.9 |
| 20260506135104 | 5 | 327 | 1.6 | 4.8 | 0.00 | 0.00 | 0.00 | 66 | 1008.9 |
| 20260506134603 | 5 | 304 | 3.2 | 8.0 | 0.00 | 0.00 | 0.00 | 68 | 1008.8 |
| 20260506134104 | 5 | 209 | 1.6 | 4.8 | 0.00 | 0.00 | 0.00 | 68 | 1008.9 |
| 20260506133603 | 5 | 261 | 1.6 | 8.0 | 0.00 | 0.00 | 0.00 | 68 | 1008.9 |